Location: Jetmore Oil Field
(38.1181°N, 99.9337°W)
Time: 15:19:30
(UTC+00:00)

STARLINK-39 - Pass Details

Date: 17 February 2020
Orbit: 529 x 530 km, 53.0° (Epoch: 08 April)

Event Time Altitude Azimuth Distance (km) Brightness Sun altitude
Rises 01:44:58 0° 221° (SW) 2,654 7.8 -17.5°
Reaches altitude 10° 01:47:11 10° 219° (SW) 1,768 6.8 -17.9°
Maximum altitude 01:51:10 71° 136° (SE) 563 3.4 -18.7°
Enters shadow 01:52:08 48° 70° (ENE) 694 3.7 -18.9°
